QPF
0.00 0.00 0.00 0.00 0.00 0.00 0.00 0.01 0.02 0.02 0.01 0.00 0.00 0.00 0.00 0.00 0.00 0.00 0.00 0.00 0.00 0.00 0.00 0.00 0.00 0.00 0.00 0.00 0.00 0.00 0.00 0.00 0.00 0.00 0.00 0.00 0.01 0.01 0.02 0.03 0.02 0.02 0.01 0.01
0.00 0.00 0.00 0.00 0.00 0.00 0.00 0.00 0.01 0.01 0.01 0.00 0.00 0.00 0.00 0.00 0.00 0.00 0.00 0.00 0.01 0.01 0.00 0.00 0.00 0.00 0.00 0.00 0.00 0.00 0.00 0.00 0.00 0.00 0.00 0.01 0.01 0.02 0.03 0.03 0.03 0.03 0.02 0.02
0.00 0.00 0.00 0.00 0.00 0.00 0.00 0.00 0.01 0.02 0.01 0.00 0.00 0.01 0.01 0.01 0.01 0.01 0.01 0.01 0.01 0.00 0.00 0.00 0.00 0.00 0.00 0.00 0.00 0.00 0.00 0.00 0.00 0.00 0.00 0.01 0.01 0.02 0.03 0.04 0.04 0.04 0.03 0.03
0.00 0.00 0.01 0.01 0.00 0.00 0.00 0.00 0.00 0.00 0.01 0.02 0.02 0.03 0.03 0.03 0.02 0.01 0.01 0.01 0.00 0.00 0.00 0.00 0.00 0.00 0.00 0.00 0.00 0.00 0.00 0.00 0.00 0.01 0.01 0.01 0.02 0.02 0.03 0.05 0.06 0.05 0.06 0.05
0.00 0.00 0.01 0.00 0.00 0.00 0.01 0.01 0.01 0.01 0.02 0.03 0.02 0.02 0.02 0.02 0.01 0.01 0.00 0.00 0.00 0.00 0.00 0.00 0.00 0.00 0.00 0.00 0.00 0.00 0.00 0.00 0.01 0.01 0.01 0.03 0.03 0.03 0.04 0.06 0.08 0.08 0.07 0.08
0.00 0.00 0.00 0.00 0.00 0.00 0.01 0.04 0.02 0.01 0.01 0.00 0.00 0.00 0.00 0.00 0.00 0.00 0.00 0.00 0.00 0.00 0.00 0.00 0.00 0.00 0.00 0.00 0.00 0.00 0.00 0.01 0.01 0.01 0.02 0.03 0.04 0.06 0.07 0.09 0.11 0.12 0.10 0.09
0.00 0.00 0.00 0.00 0.00 0.00 0.01 0.02 0.00 0.00 0.00 0.00 0.00 0.00 0.00 0.00 0.00 0.00 0.00 0.00 0.00 0.00 0.00 0.00 0.00 0.00 0.00 0.00 0.01 0.01 0.01 0.01 0.01 0.01 0.02 0.02 0.04 0.07 0.09 0.12 0.16 0.17 0.15 0.12
0.00 0.01 0.01 0.00 0.00 0.00 0.00 0.00 0.00 0.00 0.00 0.00 0.00 0.00 0.00 0.00 0.00 0.00 0.00 0.00 0.00 0.00 0.00 0.00 0.00 0.00 0.00 0.01 0.01 0.01 0.01 0.01 0.02 0.02 0.02 0.02 0.05 0.07 0.10 0.14 0.20 0.23 0.22 0.19
0.01 0.01 0.00 0.00 0.00 0.00 0.00 0.00 0.00 0.00 0.00 0.00 0.00 0.00 0.00 0.00 0.00 0.00 0.00 0.00 0.00 0.00 0.00 0.00 0.00 0.00 0.01 0.01 0.01 0.02 0.02 0.02 0.02 0.02 0.02 0.03 0.06 0.08 0.09 0.14 0.21 0.27 0.28 0.26
0.00 0.00 0.00 0.00 0.00 0.00 0.00 0.00 0.00 0.00 0.00 0.00 0.00 0.00 0.00 0.00 0.00 0.00 0.00 0.00 0.00 0.00 0.00 0.00 0.00 0.01 0.01 0.01 0.01 0.02 0.02 0.02 0.02 0.02 0.02 0.04 0.06 0.08 0.10 0.13 0.20 0.27 0.30 0.29
0.00 0.00 0.00 0.00 0.00 0.00 0.00 0.00 0.00 0.00 0.00 0.00 0.00 0.00 0.00 0.00 0.00 0.00 0.00 0.00 0.00 0.00 0.00 0.00 0.01 0.01 0.01 0.01 0.02 0.02 0.02 0.02 0.02 0.02 0.03 0.05 0.07 0.09 0.11 0.13 0.17 0.25 0.31 0.30
0.00 0.00 0.00 0.00 0.00 0.00 0.00 0.00 0.00 0.00 0.00 0.00 0.00 0.00 0.00 0.00 0.00 0.00 0.00 0.00 0.00 0.01 0.01 0.01 0.01 0.01 0.01 0.02 0.03 0.03 0.03 0.03 0.03 0.03 0.04 0.06 0.09 0.10 0.10 0.11 0.14 0.21 0.28 0.30
0.00 0.00 0.00 0.00 0.00 0.00 0.00 0.00 0.00 0.00 0.00 0.00 0.00 0.00 0.00 0.00 0.00 0.00 0.00 0.01 0.01 0.01 0.01 0.01 0.01 0.01 0.01 0.02 0.03 0.04 0.04 0.04 0.04 0.04 0.05 0.07 0.11 0.13 0.13 0.14 0.18 0.22 0.23 0.26
0.00 0.00 0.00 0.00 0.00 0.00 0.00 0.00 0.00 0.00 0.00 0.00 0.00 0.00 0.00 0.00 0.01 0.01 0.01 0.01 0.01 0.01 0.01 0.01 0.02 0.02 0.02 0.03 0.04 0.04 0.04 0.04 0.04 0.05 0.06 0.07 0.12 0.15 0.15 0.20 0.26 0.29 0.27 0.28
0.00 0.00 0.00 0.00 0.00 0.00 0.00 0.00 0.00 0.00 0.00 0.00 0.00 0.00 0.01 0.01 0.01 0.01 0.01 0.02 0.02 0.02 0.02 0.02 0.03 0.03 0.04 0.04 0.05 0.05 0.04 0.04 0.05 0.05 0.07 0.08 0.12 0.14 0.16 0.21 0.29 0.33 0.31 0.32
0.00 0.00 0.00 0.00 0.00 0.00 0.00 0.00 0.00 0.00 0.00 0.00 0.00 0.01 0.01 0.01 0.02 0.02 0.02 0.03 0.04 0.04 0.04 0.04 0.04 0.04 0.04 0.05 0.05 0.05 0.05 0.04 0.04 0.05 0.07 0.10 0.14 0.14 0.18 0.26 0.30 0.33 0.32 0.28
0.00 0.00 0.00 0.00 0.00 0.00 0.00 0.00 0.00 0.00 0.00 0.01 0.01 0.01 0.02 0.02 0.03 0.03 0.03 0.04 0.05 0.05 0.05 0.05 0.05 0.04 0.04 0.05 0.05 0.05 0.04 0.04 0.04 0.05 0.06 0.08 0.13 0.14 0.18 0.26 0.31 0.30 0.27 0.22
0.00 0.00 0.00 0.00 0.00 0.00 0.00 0.00 0.00 0.00 0.01 0.01 0.02 0.02 0.03 0.04 0.05 0.06 0.05 0.04 0.05 0.06 0.06 0.06 0.05 0.05 0.05 0.05 0.05 0.05 0.05 0.05 0.05 0.05 0.06 0.08 0.11 0.15 0.20 0.24 0.27 0.29 0.24 0.17
0.00 0.00 0.00 0.00 0.00 0.00 0.00 0.00 0.00 0.01 0.01 0.02 0.03 0.03 0.04 0.06 0.07 0.07 0.07 0.06 0.08 0.10 0.08 0.06 0.06 0.05 0.04 0.03 0.04 0.05 0.06 0.06 0.05 0.05 0.07 0.09 0.11 0.16 0.20 0.22 0.22 0.24 0.20 0.12
0.00 0.00 0.00 0.00 0.00 0.00 0.00 0.00 0.00 0.01 0.01 0.02 0.03 0.04 0.05 0.07 0.09 0.09 0.09 0.09 0.11 0.13 0.11 0.08 0.07 0.05 0.03 0.03 0.04 0.05 0.05 0.06 0.06 0.06 0.08 0.11 0.13 0.16 0.19 0.19 0.16 0.16 0.15 0.09
0.00 0.00 0.00 0.00 0.00 0.00 0.00 0.00 0.00 0.01 0.01 0.02 0.03 0.05 0.07 0.09 0.10 0.10 0.13 0.15 0.13 0.11 0.10 0.10 0.08 0.05 0.04 0.04 0.03 0.04 0.04 0.05 0.06 0.06 0.08 0.11 0.12 0.13 0.15 0.14 0.10 0.09 0.10 0.07
0.00 0.00 0.00 0.00 0.00 0.00 0.00 0.00 0.00 0.01 0.01 0.02 0.03 0.04 0.08 0.12 0.14 0.12 0.13 0.18 0.18 0.15 0.12 0.10 0.07 0.06 0.05 0.04 0.04 0.03 0.04 0.05 0.05 0.06 0.08 0.10 0.10 0.11 0.12 0.10 0.07 0.06 0.07 0.06
0.00 0.00 0.00 0.00 0.00 0.00 0.00 0.00 0.00 0.01 0.01 0.02 0.03 0.06 0.10 0.14 0.19 0.21 0.19 0.17 0.18 0.16 0.12 0.09 0.07 0.06 0.04 0.03 0.03 0.03 0.04 0.05 0.05 0.06 0.06 0.06 0.08 0.11 0.11 0.07 0.05 0.05 0.05 0.04
0.00 0.00 0.00 0.00 0.00 0.00 0.00 0.00 0.00 0.00 0.01 0.02 0.02 0.05 0.10 0.15 0.18 0.19 0.19 0.18 0.17 0.14 0.11 0.08 0.06 0.05 0.04 0.04 0.04 0.04 0.05 0.05 0.05 0.05 0.05 0.05 0.06 0.10 0.09 0.06 0.04 0.03 0.03 0.02
0.00 0.00 0.00 0.00 0.00 0.00 0.00 0.00 0.00 0.01 0.02 0.02 0.02 0.03 0.07 0.12 0.17 0.17 0.16 0.14 0.14 0.12 0.10 0.07 0.05 0.05 0.05 0.05 0.05 0.05 0.05 0.05 0.05 0.05 0.05 0.05 0.06 0.08 0.06 0.04 0.03 0.02 0.02 0.01
0.00 0.00 0.00 0.00 0.00 0.00 0.00 0.00 0.01 0.01 0.03 0.04 0.04 0.03 0.05 0.08 0.09 0.11 0.13 0.12 0.11 0.11 0.09 0.07 0.06 0.05 0.05 0.05 0.05 0.05 0.05 0.05 0.05 0.04 0.05 0.06 0.06 0.06 0.04 0.04 0.03 0.02 0.01 0.01
0.00 0.00 0.00 0.00 0.00 0.00 0.00 0.00 0.01 0.01 0.02 0.04 0.04 0.04 0.05 0.06 0.07 0.08 0.10 0.10 0.09 0.09 0.08 0.06 0.05 0.04 0.04 0.05 0.05 0.06 0.06 0.06 0.05 0.04 0.05 0.05 0.04 0.04 0.04 0.03 0.03 0.01 0.01 0.00
MSLP
1011.98 1012.11 1012.31 1012.60 1012.97 1013.38 1013.82 1014.26 1014.67 1015.02 1015.30 1015.51 1015.63 1015.68 1015.65 1015.56 1015.42 1015.23 1014.99 1014.72 1014.41 1014.07 1013.71 1013.33 1012.93 1012.52 1012.10 1011.67 1011.22 1010.76 1010.28 1009.78 1009.27 1008.75 1008.22 1007.71 1007.23 1006.80 1006.43 1006.14 1005.93 1005.80 1005.75 1005.76
1012.40 1012.61 1012.89 1013.23 1013.64 1014.07 1014.52 1014.95 1015.33 1015.65 1015.88 1016.02 1016.06 1016.01 1015.89 1015.69 1015.44 1015.15 1014.82 1014.46 1014.09 1013.71 1013.32 1012.92 1012.52 1012.12 1011.70 1011.28 1010.85 1010.40 1009.93 1009.45 1008.95 1008.46 1007.96 1007.48 1007.03 1006.63 1006.28 1006.00 1005.79 1005.67 1005.62 1005.62
1012.99 1013.29 1013.64 1014.04 1014.47 1014.91 1015.33 1015.72 1016.04 1016.27 1016.40 1016.43 1016.35 1016.18 1015.93 1015.62 1015.25 1014.86 1014.44 1014.02 1013.60 1013.19 1012.78 1012.38 1011.98 1011.57 1011.17 1010.75 1010.32 1009.88 1009.43 1008.97 1008.50 1008.03 1007.57 1007.13 1006.73 1006.36 1006.04 1005.78 1005.59 1005.47 1005.42 1005.43
1013.71 1014.08 1014.48 1014.92 1015.35 1015.77 1016.14 1016.44 1016.66 1016.77 1016.77 1016.65 1016.43 1016.12 1015.74 1015.31 1014.84 1014.36 1013.88 1013.41 1012.96 1012.53 1012.11 1011.71 1011.31 1010.91 1010.50 1010.09 1009.66 1009.23 1008.78 1008.34 1007.89 1007.45 1007.03 1006.63 1006.26 1005.93 1005.64 1005.40 1005.22 1005.11 1005.07 1005.09
1014.48 1014.89 1015.33 1015.76 1016.17 1016.53 1016.81 1017.00 1017.08 1017.05 1016.89 1016.63 1016.26 1015.82 1015.32 1014.78 1014.23 1013.69 1013.16 1012.66 1012.20 1011.75 1011.34 1010.93 1010.54 1010.14 1009.73 1009.32 1008.89 1008.46 1008.02 1007.58 1007.16 1006.75 1006.35 1005.98 1005.64 1005.33 1005.06 1004.84 1004.67 1004.57 1004.53 1004.55
1015.22 1015.65 1016.08 1016.47 1016.81 1017.08 1017.25 1017.30 1017.24 1017.05 1016.74 1016.33 1015.83 1015.28 1014.68 1014.07 1013.47 1012.88 1012.33 1011.82 1011.35 1010.90 1010.49 1010.08 1009.69 1009.29 1008.88 1008.46 1008.04 1007.61 1007.18 1006.75 1006.35 1005.95 1005.58 1005.24 1004.92 1004.62 1004.36 1004.15 1003.98 1003.87 1003.84 1003.88
1015.89 1016.28 1016.65 1016.97 1017.21 1017.36 1017.39 1017.30 1017.09 1016.75 1016.31 1015.78 1015.18 1014.54 1013.88 1013.23 1012.60 1012.00 1011.44 1010.92 1010.45 1010.01 1009.59 1009.18 1008.78 1008.38 1007.97 1007.56 1007.14 1006.72 1006.30 1005.90 1005.51 1005.14 1004.79 1004.46 1004.15 1003.87 1003.61 1003.40 1003.23 1003.12 1003.09 1003.14
1016.42 1016.75 1017.03 1017.24 1017.35 1017.36 1017.25 1017.01 1016.66 1016.20 1015.65 1015.04 1014.37 1013.68 1013.00 1012.33 1011.69 1011.09 1010.53 1010.02 1009.54 1009.09 1008.66 1008.25 1007.85 1007.44 1007.04 1006.63 1006.23 1005.83 1005.44 1005.06 1004.70 1004.35 1004.02 1003.71 1003.41 1003.14 1002.89 1002.68 1002.52 1002.42 1002.40 1002.47
1016.81 1017.04 1017.21 1017.29 1017.26 1017.12 1016.87 1016.50 1016.03 1015.47 1014.85 1014.18 1013.48 1012.78 1012.09 1011.43 1010.80 1010.21 1009.65 1009.13 1008.65 1008.18 1007.74 1007.31 1006.90 1006.49 1006.10 1005.71 1005.33 1004.97 1004.61 1004.27 1003.94 1003.62 1003.32 1003.03 1002.74 1002.48 1002.25 1002.05 1001.91 1001.83 1001.83 1001.92
1017.07 1017.19 1017.23 1017.17 1017.00 1016.72 1016.33 1015.85 1015.29 1014.66 1013.99 1013.29 1012.59 1011.90 1011.23 1010.59 1009.97 1009.39 1008.83 1008.30 1007.79 1007.30 1006.83 1006.39 1005.96 1005.55 1005.17 1004.80 1004.46 1004.13 1003.82 1003.53 1003.24 1002.95 1002.68 1002.41 1002.14 1001.90 1001.69 1001.52 1001.41 1001.36 1001.40 1001.53
1017.22 1017.22 1017.14 1016.94 1016.64 1016.23 1015.74 1015.16 1014.53 1013.85 1013.16 1012.46 1011.78 1011.11 1010.46 1009.84 1009.23 1008.65 1008.08 1007.52 1006.98 1006.45 1005.95 1005.47 1005.03 1004.62 1004.25 1003.92 1003.61 1003.33 1003.07 1002.81 1002.56 1002.31 1002.06 1001.81 1001.57 1001.35 1001.17 1001.03 1000.96 1000.97 1001.06 1001.24
1017.28 1017.19 1016.98 1016.67 1016.25 1015.74 1015.15 1014.50 1013.82 1013.12 1012.42 1011.74 1011.07 1010.43 1009.81 1009.20 1008.59 1008.00 1007.40 1006.80 1006.21 1005.64 1005.09 1004.58 1004.12 1003.71 1003.35 1003.04 1002.77 1002.53 1002.31 1002.09 1001.87 1001.64 1001.41 1001.18 1000.96 1000.76 1000.61 1000.51 1000.49 1000.56 1000.71 1000.94
1017.28 1017.10 1016.80 1016.39 1015.88 1015.28 1014.62 1013.93 1013.21 1012.50 1011.81 1011.14 1010.49 1009.86 1009.25 1008.64 1008.03 1007.40 1006.76 1006.11 1005.47 1004.84 1004.25 1003.70 1003.22 1002.80 1002.46 1002.17 1001.93 1001.72 1001.52 1001.33 1001.13 1000.91 1000.69 1000.46 1000.25 1000.07 999.94 999.88 999.91 1000.03 1000.25 1000.55
1017.23 1016.97 1016.60 1016.11 1015.53 1014.87 1014.17 1013.44 1012.70 1011.99 1011.30 1010.64 1010.00 1009.39 1008.77 1008.15 1007.50 1006.83 1006.14 1005.43 1004.73 1004.05 1003.41 1002.83 1002.33 1001.90 1001.56 1001.29 1001.07 1000.88 1000.70 1000.52 1000.33 1000.11 999.87 999.64 999.42 999.25 999.14 999.11 999.18 999.35 999.63 999.98
1017.12 1016.81 1016.38 1015.84 1015.21 1014.51 1013.77 1013.01 1012.27 1011.55 1010.87 1010.21 1009.58 1008.96 1008.32 1007.67 1006.99 1006.27 1005.52 1004.75 1003.98 1003.25 1002.56 1001.96 1001.43 1001.00 1000.67 1000.41 1000.20 1000.03 999.86 999.68 999.48 999.25 999.00 998.75 998.52 998.34 998.23 998.22 998.32 998.53 998.85 999.26
1016.97 1016.61 1016.14 1015.56 1014.89 1014.16 1013.40 1012.64 1011.89 1011.17 1010.48 1009.82 1009.18 1008.54 1007.88 1007.19 1006.46 1005.68 1004.87 1004.04 1003.22 1002.44 1001.72 1001.09 1000.56 1000.13 999.80 999.55 999.36 999.19 999.03 998.85 998.64 998.40 998.13 997.86 997.61 997.42 997.31 997.31 997.42 997.65 998.00 998.44
1016.78 1016.39 1015.88 1015.26 1014.57 1013.82 1013.05 1012.28 1011.53 1010.81 1010.12 1009.45 1008.80 1008.13 1007.43 1006.69 1005.91 1005.07 1004.21 1003.33 1002.46 1001.64 1000.90 1000.25 999.72 999.30 998.98 998.75 998.57 998.43 998.27 998.10 997.88 997.63 997.35 997.07 996.81 996.61 996.49 996.48 996.60 996.83 997.19 997.64
1016.57 1016.14 1015.60 1014.97 1014.25 1013.50 1012.72 1011.95 1011.20 1010.48 1009.78 1009.10 1008.41 1007.71 1006.98 1006.19 1005.35 1004.47 1003.55 1002.62 1001.73 1000.88 1000.13 999.48 998.96 998.55 998.25 998.05 997.90 997.77 997.64 997.48 997.27 997.03 996.75 996.46 996.20 995.99 995.87 995.86 995.97 996.20 996.55 996.99
1016.37 1015.90 1015.34 1014.68 1013.95 1013.19 1012.41 1011.64 1010.89 1010.17 1009.46 1008.76 1008.05 1007.32 1006.54 1005.71 1004.82 1003.89 1002.93 1001.98 1001.06 1000.21 999.45 998.82 998.31 997.93 997.66 997.49 997.37 997.27 997.17 997.03 996.85 996.63 996.37 996.10 995.85 995.65 995.53 995.51 995.61 995.83 996.16 996.58
1016.18 1015.69 1015.09 1014.42 1013.69 1012.92 1012.15 1011.38 1010.63 1009.90 1009.19 1008.47 1007.74 1006.97 1006.16 1005.29 1004.36 1003.40 1002.41 1001.44 1000.51 999.66 998.92 998.30 997.82 997.47 997.23 997.09 997.00 996.94 996.87 996.77 996.62 996.43 996.20 995.96 995.73 995.55 995.44 995.42 995.52 995.72 996.03 996.42
1016.01 1015.49 1014.88 1014.20 1013.46 1012.70 1011.93 1011.17 1010.43 1009.70 1008.98 1008.25 1007.50 1006.71 1005.86 1004.96 1004.01 1003.02 1002.02 1001.04 1000.11 999.27 998.55 997.95 997.49 997.17 996.96 996.85 996.79 996.76 996.72 996.65 996.54 996.38 996.19 995.99 995.79 995.63 995.54 995.53 995.62 995.81 996.09 996.45
1015.85 1015.32 1014.70 1014.02 1013.29 1012.54 1011.78 1011.04 1010.30 1009.58 1008.86 1008.12 1007.35 1006.54 1005.67 1004.75 1003.78 1002.78 1001.78 1000.80 999.89 999.06 998.36 997.78 997.35 997.04 996.85 996.76 996.71 996.70 996.67 996.63 996.54 996.42 996.26 996.08 995.92 995.79 995.72 995.72 995.81 995.99 996.25 996.58
1015.68 1015.15 1014.54 1013.86 1013.15 1012.42 1011.69 1010.96 1010.25 1009.53 1008.82 1008.08 1007.30 1006.48 1005.60 1004.67 1003.70 1002.70 1001.70 1000.74 999.84 999.03 998.34 997.79 997.36 997.07 996.88 996.78 996.73 996.71 996.69 996.65 996.57 996.46 996.32 996.17 996.04 995.93 995.88 995.89 995.99 996.16 996.40 996.71
1015.48 1014.96 1014.37 1013.72 1013.04 1012.34 1011.64 1010.94 1010.25 1009.56 1008.85 1008.12 1007.34 1006.52 1005.65 1004.72 1003.75 1002.76 1001.78 1000.84 999.96 999.17 998.50 997.95 997.53 997.23 997.02 996.90 996.83 996.78 996.74 996.67 996.59 996.47 996.34 996.21 996.09 996.00 995.97 996.00 996.09 996.26 996.50 996.79
1015.26 1014.76 1014.20 1013.58 1012.94 1012.28 1011.62 1010.96 1010.30 1009.64 1008.95 1008.24 1007.48 1006.67 1005.80 1004.89 1003.94 1002.97 1002.02 1001.10 1000.24 999.47 998.81 998.27 997.84 997.51 997.28 997.12 997.00 996.91 996.82 996.72 996.61 996.48 996.34 996.20 996.09 996.02 996.00 996.04 996.15 996.33 996.56 996.85
1015.02 1014.55 1014.03 1013.46 1012.86 1012.25 1011.64 1011.03 1010.41 1009.78 1009.13 1008.44 1007.70 1006.91 1006.07 1005.18 1004.26 1003.33 1002.40 1001.51 1000.68 999.93 999.28 998.73 998.28 997.93 997.66 997.45 997.28 997.14 996.99 996.85 996.70 996.54 996.38 996.24 996.14 996.08 996.07 996.13 996.25 996.44 996.68 996.97
1014.79 1014.36 1013.88 1013.36 1012.82 1012.27 1011.71 1011.15 1010.58 1009.99 1009.38 1008.72 1008.02 1007.26 1006.46 1005.60 1004.72 1003.82 1002.94 1002.08 1001.29 1000.56 999.92 999.36 998.90 998.52 998.21 997.95 997.73 997.52 997.33 997.14 996.95 996.77 996.60 996.46 996.35 996.30 996.31 996.39 996.53 996.73 996.99 997.29
Thickness
5743 5746 5741 5732 5725 5721 5714 5709 5701 5699 5687 5672 5662 5656 5651 5646 5642 5639 5636 5632 5629 5626 5625 5623 5622 5622 5621 5621 5620 5620 5620 5621 5622 5625 5627 5629 5631 5635 5638 5640 5643 5646 5647 5648
5735 5741 5735 5719 5710 5705 5698 5691 5689 5682 5663 5656 5649 5643 5636 5630 5625 5622 5620 5619 5617 5615 5613 5611 5609 5607 5606 5604 5603 5602 5602 5603 5605 5606 5609 5611 5614 5618 5622 5625 5628 5632 5635 5637
5728 5732 5722 5702 5686 5685 5678 5672 5669 5657 5645 5641 5634 5628 5623 5620 5616 5614 5613 5609 5606 5602 5599 5596 5594 5591 5588 5586 5585 5584 5583 5584 5586 5588 5590 5593 5596 5600 5603 5608 5612 5616 5620 5623
5723 5716 5695 5675 5680 5672 5663 5657 5652 5642 5635 5628 5623 5623 5621 5618 5614 5608 5601 5596 5591 5587 5583 5580 5577 5573 5570 5568 5566 5564 5564 5565 5567 5568 5571 5573 5576 5580 5585 5590 5595 5600 5605 5609
5712 5708 5685 5669 5665 5657 5647 5646 5642 5632 5628 5626 5624 5618 5620 5616 5603 5592 5586 5580 5575 5570 5565 5561 5557 5553 5550 5548 5546 5545 5546 5547 5548 5549 5551 5554 5557 5562 5567 5573 5579 5585 5591 5596
5701 5688 5681 5653 5657 5654 5642 5635 5632 5626 5618 5614 5608 5602 5604 5596 5585 5577 5571 5564 5558 5553 5548 5544 5541 5537 5534 5532 5531 5530 5531 5531 5532 5533 5534 5537 5541 5546 5552 5558 5564 5571 5578 5584
5686 5678 5662 5652 5652 5648 5631 5625 5622 5615 5607 5599 5592 5585 5583 5578 5570 5562 5555 5549 5544 5540 5536 5533 5530 5526 5524 5523 5522 5521 5521 5521 5521 5522 5524 5527 5531 5535 5540 5545 5552 5558 5565 5571
5674 5663 5648 5647 5643 5629 5620 5617 5610 5603 5596 5589 5581 5576 5570 5562 5555 5548 5542 5538 5534 5530 5529 5526 5524 5521 5520 5518 5518 5517 5516 5516 5516 5517 5520 5524 5526 5529 5532 5535 5540 5547 5554 5561
5659 5653 5645 5640 5630 5624 5616 5607 5600 5593 5585 5577 5570 5564 5557 5550 5544 5539 5535 5531 5528 5525 5524 5523 5520 5518 5516 5516 5514 5513 5513 5513 5513 5514 5516 5518 5521 5524 5526 5529 5534 5539 5546 5552
5650 5648 5641 5633 5626 5617 5607 5597 5590 5581 5574 5566 5558 5553 5546 5542 5537 5533 5529 5526 5524 5522 5520 5519 5516 5514 5513 5512 5511 5510 5510 5510 5511 5512 5515 5517 5518 5520 5522 5525 5528 5531 5538 5543
5642 5639 5631 5628 5616 5607 5598 5590 5581 5573 5564 5555 5548 5543 5538 5534 5531 5528 5525 5522 5519 5517 5515 5514 5512 5510 5509 5508 5506 5506 5506 5507 5509 5510 5512 5512 5514 5514 5516 5518 5521 5522 5529 5535
5631 5625 5616 5612 5607 5599 5589 5581 5573 5564 5557 5549 5540 5536 5532 5529 5525 5522 5519 5516 5514 5511 5509 5508 5507 5506 5505 5503 5501 5501 5501 5503 5504 5506 5508 5508 5509 5511 5512 5512 5513 5514 5517 5523
5625 5620 5612 5606 5600 5591 5581 5573 5565 5557 5549 5543 5537 5531 5526 5522 5519 5515 5512 5509 5507 5505 5503 5501 5500 5499 5499 5497 5496 5496 5495 5497 5498 5500 5501 5503 5504 5507 5509 5511 5509 5510 5514 5520
5620 5612 5604 5599 5592 5584 5575 5568 5560 5552 5544 5537 5531 5525 5520 5515 5512 5508 5505 5502 5500 5497 5496 5494 5493 5493 5492 5491 5490 5490 5490 5492 5492 5494 5496 5498 5500 5503 5506 5509 5511 5515 5516 5519
5615 5606 5599 5593 5586 5578 5570 5562 5554 5547 5540 5533 5525 5519 5513 5508 5505 5502 5498 5495 5492 5490 5488 5487 5486 5486 5485 5484 5484 5484 5485 5487 5488 5490 5492 5495 5498 5501 5505 5508 5511 5515 5519 5522
5608 5602 5595 5586 5578 5570 5563 5555 5547 5541 5534 5527 5521 5515 5508 5502 5499 5495 5492 5488 5485 5483 5482 5480 5480 5480 5479 5479 5480 5482 5483 5484 5484 5487 5490 5493 5496 5501 5505 5508 5512 5518 5524 5528
5599 5594 5587 5579 5571 5564 5556 5548 5540 5534 5527 5522 5516 5510 5504 5499 5495 5491 5488 5484 5480 5479 5478 5477 5477 5477 5477 5478 5479 5481 5483 5485 5484 5486 5490 5494 5498 5502 5507 5511 5516 5522 5529 5534
5595 5587 5579 5571 5564 5558 5552 5544 5536 5529 5522 5517 5512 5506 5500 5494 5490 5487 5484 5482 5479 5478 5477 5476 5475 5475 5476 5478 5479 5481 5483 5485 5487 5489 5493 5498 5503 5507 5512 5517 5523 5530 5535 5537
5591 5583 5575 5567 5559 5552 5545 5539 5532 5525 5519 5513 5507 5502 5497 5493 5488 5485 5482 5481 5479 5478 5478 5476 5473 5475 5478 5480 5481 5483 5485 5488 5491 5494 5499 5502 5508 5514 5520 5525 5532 5538 5543 5547
5587 5579 5572 5564 5556 5548 5541 5535 5529 5522 5517 5511 5506 5502 5498 5494 5490 5487 5484 5481 5479 5477 5476 5475 5477 5478 5480 5483 5483 5488 5491 5493 5498 5503 5508 5513 5519 5525 5531 5536 5542 5547 5552 5556
5582 5575 5567 5560 5552 5545 5538 5532 5526 5521 5516 5511 5506 5502 5498 5495 5492 5489 5487 5487 5484 5480 5479 5478 5480 5481 5483 5484 5485 5492 5496 5501 5505 5510 5516 5522 5528 5534 5541 5546 5550 5554 5559 5563
5577 5570 5563 5556 5549 5542 5536 5530 5526 5520 5515 5512 5508 5505 5501 5498 5496 5494 5491 5487 5487 5483 5484 5485 5485 5483 5485 5487 5494 5499 5504 5509 5513 5519 5524 5530 5537 5543 5550 5554 5558 5562 5566 5570
5573 5565 5559 5552 5546 5539 5535 5530 5524 5519 5515 5512 5510 5507 5503 5499 5497 5497 5496 5494 5492 5489 5491 5492 5488 5488 5490 5498 5503 5508 5513 5517 5522 5528 5534 5540 5546 5552 5557 5562 5566 5569 5572 5576
5569 5562 5556 5550 5544 5539 5535 5529 5523 5519 5515 5513 5511 5508 5505 5504 5504 5502 5500 5499 5498 5497 5500 5498 5497 5499 5502 5511 5515 5519 5522 5527 5533 5538 5544 5549 5555 5560 5565 5571 5575 5577 5580 5582
5565 5559 5555 5548 5544 5539 5533 5529 5525 5521 5517 5515 5514 5512 5509 5506 5505 5506 5507 5508 5507 5509 5512 5512 5511 5513 5519 5524 5527 5530 5534 5538 5543 5547 5552 5558 5563 5568 5573 5578 5581 5584 5586 5587
5563 5559 5552 5545 5540 5535 5531 5527 5523 5519 5516 5514 5514 5513 5512 5511 5511 5512 5513 5515 5517 5518 5522 5524 5526 5527 5531 5534 5537 5540 5544 5548 5552 5556 5560 5565 5570 5575 5580 5583 5586 5588 5589 5591
5563 5558 5552 5546 5540 5533 5528 5525 5521 5517 5514 5511 5511 5513 5513 5514 5515 5516 5518 5520 5523 5525 5527 5530 5533 5536 5539 5542 5545 5549 5552 5555 5559 5564 5569 5573 5577 5581 5584 5587 5589 5591 5592 5593